Location: Erdweis
(48.5167°N, 15.3500°E)
Time: 13:55:45
(UTC+00:00)

USA 234 - Pass Details

Date: 25 January 2021
Orbit: 1100 x 1107 km, 123.0° (Epoch: 01 March)

Event Time Altitude Azimuth Distance (km) Brightness Sun altitude
Exits shadow 18:32:15 50° 40° (NE) 1,386 3.5 -27.3°
Maximum altitude 18:33:01 52° 17° (NNE) 1,348 3.5 -27.4°
Drops below altitude 10° 18:39:19 10° 304° (NW) 2,968 6.2 -28.5°
Sets 18:41:51 0° 300° (WNW) 3,928 7.1 -28.9°
